Weather History for KNQI - October, 2012

Change the Weather History Date:

Sunday, October 7, 2012

  Actual Average Record
Temperature  
Mean Temperature 66 °F -  
Max Temperature 72 °F 82 °F 95 °F (2011)
Min Temperature 62 °F 65 °F 41 °F (2013)
Cooling Degree Days 2    
Growing Degree Days 16 (Base 50)    
Moisture  
Dew Point 56 °F    
Average Humidity 70    
Maximum Humidity 84    
Minimum Humidity 60    
Precipitation  
Precipitation 0.00 in - - ()
Sea Level Pressure  
Sea Level Pressure 30.08 in    
Wind  
Wind Speed 12 mph (NNE)    
Max Wind Speed 20 mph    
Max Gust Speed 25 mph    
Visibility 9 miles    
Events      
Averages and records for this station are not official NWS values.
T = Trace of Precipitation, MM = Missing Value Source: NWS Daily Summary

Daily Weather History Graph

Daily Weather History Graph

Search for Another Location

Airport or City:

Trip Planner

Search our weather history database for the weather conditions in past years. The results will help you decide how hot, cold, wet, or windy it might be!

Date:

Astronomy

Oct. 07, 2012 Rise Set
Actual Time 7:27 AM CDT 7:10 PM CDT
Civil Twilight 7:03 AM CDT 7:33 PM CDT
Nautical Twilight 6:36 AM CDT 8:00 PM CDT
Astronomical Twilight 6:09 AM CDT 8:27 PM CDT
Moon No Moon Rise 1:44 PM CDT
Length of Visible Light 12h 29m
Length of Day
11h 42m
Waning Gibbous, 56% of the Moon is Illuminated
Oct 7
Waning Gibbous
Oct 8
Last Quarter
Oct 15
New
Oct 21
First Quarter
Oct 29
Full

Hourly Weather History & Observations

Time (CDT) Temp. Dew Point Humidity Pressure Visibility Wind Dir Wind Speed Gust Speed Precip Events Conditions
12:56 AM 71.1 °F 64.9 °F 81% 29.99 in 10.0 mi NE 3.5 mph - N/A   Scattered Clouds
1:56 AM 71.1 °F 63.0 °F 75% 30.00 in 9.0 mi NNE 13.8 mph 21.9 mph N/A   Scattered Clouds
2:56 AM 69.1 °F 61.0 °F 75% 30.01 in 8.0 mi NNE 16.1 mph 25.3 mph N/A   Overcast
3:56 AM 66.0 °F 60.1 °F 81% 30.03 in 8.0 mi NNE 15.0 mph 21.9 mph N/A   Scattered Clouds
4:25 AM 66.2 °F 60.8 °F 83% 30.04 in 9.0 mi NNE 13.8 mph - N/A   Mostly Cloudy
4:56 AM 64.9 °F 60.1 °F 84% 30.01 in 8.0 mi NNE 19.6 mph - N/A   Overcast
5:56 AM 64.0 °F 59.0 °F 84% 30.04 in 8.0 mi NNE 15.0 mph 25.3 mph N/A   Overcast
6:56 AM 64.0 °F 57.9 °F 80% 30.06 in 8.0 mi North 16.1 mph 23.0 mph N/A   Overcast
7:56 AM 63.0 °F 57.0 °F 81% 30.09 in 6.0 mi North 17.3 mph 23.0 mph N/A   Haze
8:56 AM 62.1 °F 55.9 °F 80% 30.11 in 8.0 mi NNE 12.7 mph 24.2 mph N/A   Overcast
9:14 AM 62.6 °F 55.4 °F 77% 30.12 in 8.0 mi NNE 17.3 mph 24.2 mph N/A   Overcast
9:56 AM 62.1 °F 54.0 °F 75% 30.13 in 8.0 mi North 16.1 mph 23.0 mph N/A   Overcast
10:56 AM 63.0 °F 54.0 °F 72% 30.14 in 8.0 mi NNE 13.8 mph 21.9 mph N/A   Overcast
11:56 AM 64.9 °F 54.0 °F 68% 30.14 in 8.0 mi North 11.5 mph - N/A   Overcast
12:56 PM 66.9 °F 55.0 °F 66% 30.13 in 9.0 mi NNE 11.5 mph - N/A   Overcast
1:56 PM 69.1 °F 55.0 °F 61% 30.10 in 9.0 mi North 10.4 mph - N/A   Overcast
2:56 PM 70.0 °F 55.9 °F 61% 30.08 in 10.0 mi NNE 10.4 mph - N/A   Overcast
3:56 PM 70.0 °F 55.9 °F 61% 30.06 in 10.0 mi North 11.5 mph - N/A   Overcast
4:56 PM 70.0 °F 55.9 °F 61% 30.05 in 10.0 mi North 11.5 mph - N/A   Overcast
5:56 PM 69.1 °F 55.0 °F 61% 30.06 in 10.0 mi North 9.2 mph - N/A   Overcast
6:23 PM 69.8 °F 55.4 °F 60% 30.07 in 10.0 mi North 9.2 mph - N/A   Overcast
6:56 PM 69.1 °F 55.0 °F 61% 30.06 in 10.0 mi North 9.2 mph - N/A   Overcast
7:56 PM 68.0 °F 55.0 °F 63% 30.08 in 10.0 mi North 8.1 mph - N/A   Overcast
8:56 PM 66.9 °F 54.0 °F 63% 30.11 in 10.0 mi North 11.5 mph - N/A   Overcast
9:56 PM 66.9 °F 53.1 °F 61% 30.13 in 10.0 mi NNE 12.7 mph - N/A   Overcast
10:56 PM 64.9 °F 52.0 °F 63% 30.13 in 10.0 mi NNE 12.7 mph - N/A   Overcast
11:44 PM 64.4 °F 51.8 °F 64% 30.14 in 10.0 mi North 12.7 mph - N/A   Overcast
11:56 PM 64.9 °F 51.1 °F 61% 30.14 in 10.0 mi North 11.5 mph - N/A   Overcast